Weather History for Baltimore Martin, MD

Change the Weather History Date:

Monday, October 14, 2013

  Actual Average Record
Temperature  
Mean Temperature 60 °F -  
Max Temperature 68 °F 63 °F 78 °F (2000)
Min Temperature 53 °F 47 °F 35 °F (2006)
Degree Days  
Heating Degree Days 4    
Growing Degree Days 10 (Base 50)    
Moisture  
Dew Point 54 °F    
Average Humidity 84    
Maximum Humidity 100    
Minimum Humidity 60    
Precipitation  
Precipitation 0.00 in - - ()
Sea Level Pressure  
Sea Level Pressure 30.31 in    
Wind  
Wind Speed 1 mph (North)    
Max Wind Speed 9 mph    
Max Gust Speed -    
Visibility 10 miles    
Events      
Averages and records for this station are not official NWS values.
T = Trace of Precipitation, MM = Missing Value Source: NWS Daily Summary

Daily Weather History Graph

Daily Weather History Graph

Search for Another Location

Airport:

Trip Planner

Search our weather history database for the weather conditions in past years. The results will help you decide how hot, cold, wet, or windy it might be!

Date:

Astronomy

Oct. 14, 2013 Rise Set
Actual Time 7:14 AM EDT 6:27 PM EDT
Civil Twilight 6:47 AM EDT 6:54 PM EDT
Nautical Twilight 6:16 AM EDT 7:25 PM EDT
Astronomical Twilight 5:45 AM EDT 7:56 PM EDT
Moon 3:54 PM EDT (10/14) 2:30 AM EDT (10/14)
Length of Visible Light 12h 07m
Length of Day
11h 13m
Waxing Gibbous, 79% of the Moon is Illuminated
Oct 14
Waxing Gibbous
Oct 18
Full
Oct 26
Last Quarter
Nov 3
New
Nov 10
First Quarter

Hourly Weather History & Observations

Time (EDT) Temp. Dew Point Humidity Pressure Visibility Wind Dir Wind Speed Gust Speed Precip Events Conditions
12:03 AM 57.2 °F 53.6 °F 88% 30.35 in 10.0 mi Calm Calm - N/A   Clear
12:21 AM 57.2 °F 53.6 °F 88% 30.35 in 10.0 mi Calm Calm - N/A   Scattered Clouds
12:42 AM 57.2 °F 53.6 °F 88% 30.34 in 10.0 mi Calm Calm - N/A   Scattered Clouds
1:03 AM 59.0 °F 53.6 °F 82% 30.34 in 10.0 mi Calm Calm - N/A   Scattered Clouds
1:21 AM 59.0 °F 53.6 °F 82% 30.34 in 10.0 mi Calm Calm - N/A   Scattered Clouds
1:42 AM 59.0 °F 53.6 °F 82% 30.34 in 10.0 mi Calm Calm - N/A   Scattered Clouds
2:03 AM 59.0 °F 53.6 °F 82% 30.34 in 10.0 mi Calm Calm - N/A   Scattered Clouds
2:21 AM 59.0 °F 53.6 °F 82% 30.34 in 10.0 mi Calm Calm - N/A   Scattered Clouds
2:42 AM 59.0 °F 53.6 °F 82% 30.34 in 10.0 mi Calm Calm - N/A   Scattered Clouds
3:03 AM 57.2 °F 53.6 °F 88% 30.34 in 10.0 mi Calm Calm - N/A   Scattered Clouds
3:21 AM 57.2 °F 53.6 °F 88% 30.33 in 10.0 mi NNW 3.5 mph - N/A   Scattered Clouds
3:42 AM 57.2 °F 53.6 °F 88% 30.33 in 10.0 mi Calm Calm - N/A   Scattered Clouds
4:03 AM 57.2 °F 53.6 °F 88% 30.33 in 10.0 mi Calm Calm - N/A   Scattered Clouds
4:21 AM 57.2 °F 53.6 °F 88% 30.34 in 10.0 mi NW 3.5 mph - N/A   Mostly Cloudy
4:42 AM 57.2 °F 53.6 °F 88% 30.34 in 10.0 mi Calm Calm - N/A   Mostly Cloudy
5:03 AM 57.2 °F 53.6 °F 88% 30.35 in 10.0 mi NNW 3.5 mph - N/A   Mostly Cloudy
5:21 AM 57.2 °F 53.6 °F 88% 30.34 in 10.0 mi Calm Calm - N/A   Mostly Cloudy
5:27 AM 57.2 °F 53.6 °F 88% 30.34 in 10.0 mi NNW 3.5 mph - N/A   Mostly Cloudy
5:45 AM 57.2 °F 53.6 °F 88% 30.35 in 10.0 mi North 5.8 mph - N/A   Mostly Cloudy
7:45 AM 57.2 °F 53.6 °F 88% 30.34 in 10.0 mi North 8.1 mph - N/A   Overcast
8:55 AM 59.0 °F 53.6 °F 82% 30.36 in 10.0 mi NNE 9.2 mph - N/A   Mostly Cloudy
9:55 AM 60.8 °F 53.6 °F 77% 30.36 in 10.0 mi Calm Calm - N/A   Overcast
10:45 AM 62.6 °F 55.4 °F 77% 30.36 in 10.0 mi NNW 5.8 mph - N/A   Mostly Cloudy
11:45 AM 64.4 °F 55.4 °F 73% 30.33 in 10.0 mi North 4.6 mph - N/A   Mostly Cloudy
12:45 PM 64.4 °F 55.4 °F 73% 30.32 in 10.0 mi NNW 4.6 mph - N/A   Mostly Cloudy
1:55 PM 68.0 °F 53.6 °F 60% 30.29 in 10.0 mi Calm Calm - N/A   Partly Cloudy
2:48 PM 68.0 °F 55.4 °F 64% 30.27 in 10.0 mi ENE 4.6 mph - N/A   Partly Cloudy
3:52 PM 68.0 °F 55.4 °F 64% 30.26 in 10.0 mi ESE 9.2 mph - N/A   Partly Cloudy
4:45 PM 66.2 °F 53.6 °F 64% 30.26 in 10.0 mi East 5.8 mph - N/A   Clear
5:49 PM 66.2 °F 53.6 °F 64% 30.26 in 10.0 mi ESE 3.5 mph - N/A   Partly Cloudy
6:48 PM 60.8 °F 55.4 °F 82% 30.27 in 10.0 mi Calm Calm - N/A   Clear
7:45 PM 57.2 °F 53.6 °F 88% 30.27 in 10.0 mi Calm Calm - N/A   Clear
8:51 PM 57.2 °F 55.4 °F 94% 30.27 in 10.0 mi Calm Calm - N/A   Clear
9:45 PM 55.4 °F 53.6 °F 94% 30.27 in 10.0 mi Calm Calm - N/A   Clear
10:03 PM 55.4 °F 53.6 °F 94% 30.27 in 10.0 mi WNW 3.5 mph - N/A   Clear
10:24 PM 55.4 °F 53.6 °F 94% 30.27 in 10.0 mi Calm Calm - N/A   Clear
10:45 PM 55.4 °F 53.6 °F 94% 30.27 in 10.0 mi Calm Calm - N/A   Clear
11:03 PM 53.6 °F 53.6 °F 100% 30.27 in 10.0 mi Calm Calm - N/A   Clear
11:24 PM 53.6 °F 53.6 °F 100% 30.27 in 10.0 mi Calm Calm - N/A   Clear
11:45 PM 53.6 °F 53.6 °F 100% 30.27 in 10.0 mi Calm Calm - N/A   Clear